www.pogodaiklimat.ru

Погода и климат >> Архив погоды >> Швеция >> Tarfala


ПОГОДА в Tarfala

  • Прогноз погоды в Tarfala
  • Монитор погоды в Tarfala
  • Климат города

АРХИВ ПОГОДЫ в Tarfala

Время (UTC), дата Ветер
(напр.,м/с)
 
Видим.   Явления Облачность Т
(С)
Тd
(С)
f
(%)
Тe
(С)
Тes
(С)
Комфортность P
(гПа)
Po
(гПа)
Тmin
(С)
Tmax
(С)
R
(мм)
R24
(мм)
S
(см)
22 13.09 ЮВ 3
{3}
н/о н/о +3.5 +1.8 89 -0 -0 1003.2 871.7
23 13.09 ЮВ 2
{3}
н/о н/о +3.3 +2.1 92 0 0 1003.1 871.5
00 14.09 ЮВ 2
{2}
н/о н/о +3.1 +2.2 94 -0 -0 1003.0 871.3
02 14.09 ЮВ 2
{3}
н/о н/о +2.6 +1.9 95 -1 -1 1002.7 870.7
01 14.09 СЗ 1
{2}
н/о н/о +3.0 +2.2 94 +1 +1 1002.7 871.0
03 14.09 ЮВ 2
{5}
н/о н/о +1.5 +0.8 95 -2 -2 1003.0 870.7
04 14.09 С 1
{5}
н/о н/о +0.8 +0.3 96 -1 -1 1002.8 870.3
05 14.09 С 2
{3}
н/о н/о +1.3 +0.7 96 -2 -2 1002.4 870.1
06 14.09 С 1
{3}
н/о н/о +1.2 +0.5 95 -1 -1 1002.4 870.1 +0.5 +5.1
08 14.09 ЮВ 2
{2}
н/о н/о +2.3 +1.4 94 -1 -1 1001.9 870.0
07 14.09 З 1
{2}
н/о н/о +1.8 +0.9 94 -0 -0 1002.2 870.0
09 14.09 Ю 2
{3}
н/о н/о +2.6 +1.5 92 -1 -1 1001.7 869.9
10 14.09 Ю 1
{3}
н/о н/о +3.2 +1.1 86 +2 +2 1001.3 869.8
11 14.09 Ю 1
{4}
н/о н/о +3.9 +1.8 86 +2 +2 1001.0 869.9
12 14.09 Ю 2
{4}
н/о н/о +3.6 +1.3 85 +1 +1 1001.2 870.0
14 14.09 ЮВ 3
{5}
н/о н/о +3.9 +1.7 86 0 0 1001.0 869.9
13 14.09 Ю 2
{4}
н/о н/о +4.0 +1.4 83 +1 +1 1000.9 869.9
15 14.09 СВ 2
{5}
н/о н/о +3.6 +0.7 81 +1 +1 1001.2 869.9
16 14.09 СЗ 3
{5}
н/о н/о +2.7 +0.5 85 -1 -1 1001.9 870.1
17 14.09 З 3
{9}
н/о н/о +2.8 -0.4 79 -1 -1 1001.9 870.1
18 14.09 З 6
{10}
н/о н/о +2.9 -2.1 70 -3 -3 1001.9 870.2 +1.1 +4.0
20 14.09 З 3
{11}
н/о н/о +2.6 -1.5 74 -1 -1 1002.4 870.5
19 14.09 З 4
{11}
н/о н/о +2.7 -2.0 71 -2 -2 1002.2 870.4
21 14.09 С 4
{11}
н/о н/о +2.5 -1.9 73 -2 -2 1002.8 870.8
22 14.09 С 2
{8}
н/о н/о +2.1 -1.2 79 -1 -1 1003.1 870.9
23 14.09 СВ 2
{8}
н/о н/о +2.4 -2.1 72 -1 -1 1002.8 870.8
00 15.09 СЗ 2
{7}
н/о н/о +1.9 -1.9 76 -1 -1 1003.1 870.8
02 15.09 В 1
{4}
н/о н/о +0.6 -1.7 85 -1 -1 1003.4 870.7
01 15.09 В 1
{7}
н/о н/о +0.9 -1.5 84 -1 -1 1003.1 870.6
03 15.09 С 1
{2}
н/о н/о +0.5 -2.0 83 -1 -1 1003.0 870.4
04 15.09 СЗ 1
{3}
н/о н/о +1.0 -2.0 80 -1 -1 1002.7 870.3
05 15.09 С 1
{3}
н/о н/о +1.1 -2.3 78 -1 -1 1002.3 869.9
06 15.09 В 1
{2}
н/о н/о +0.8 -1.4 85 -1 -1 1002.6 870.1 -0.1 +3.1
08 15.09 ЮВ 2
{5}
н/о н/о +2.1 -0.7 82 -1 -1 1002.1 870.0
07 15.09 СВ 1
{2}
н/о н/о +1.3 -0.7 87 -1 -1 1002.4 870.1
09 15.09 Ю 1
{5}
н/о н/о +2.1 -0.4 84 0 0 1001.9 869.8
10 15.09 штиль 0
{2}
н/о н/о +0.9 -0.4 91 -0 -0 1001.8 869.5
11 15.09 С 1
{1}
н/о н/о +0.4 -0.1 96 -2 -2 1001.5 869.1
12 15.09 С 1
{2}
н/о н/о +0.6 +0.1 96 -2 -2 1000.8 868.5
14 15.09 Ю 1
{2}
н/о н/о +0.9 +0.1 94 -1 -1 999.9 867.8
13 15.09 СВ 1
{2}
н/о н/о +0.8 +0.1 95 -1 -1 1000.3 868.2
15 15.09 Ю 2
{5}
н/о н/о +0.1 -0.3 97 -4 -4 999.7 867.4
16 15.09 В 3
{6}
н/о н/о +1.1 -0.3 90 -3 -3 998.8 866.9
17 15.09 В 1
{6}
н/о н/о +0.7 -0.2 94 -1 -1 998.5 866.5
18 15.09 СЗ 1
{5}
н/о н/о +0.6 -0.1 95 -2 -2 998.3 866.3 0.0 +2.5
20 15.09 С 1
{3}
н/о н/о +0.5 -0.1 96 -2 -2 998.0 866.1
19 15.09 штиль 0
{2}
н/о н/о +0.2 -0.3 96 -1 -1 998.3 866.3
21 15.09 СЗ 1
{3}
н/о н/о +0.4 -0.1 96 -2 -2 998.1 866.1
22 15.09 Ю 2
{4}
н/о н/о 0.0 -0.5 96 -4 -4 998.2 866.1
23 15.09 СЗ 1
{4}
н/о н/о +0.5 +0.1 97 -2 -2 998.0 866.1
00 16.09 ЮВ 1
{5}
н/о н/о +0.6 -0.5 92 -1 -1 998.0 866.1
02 16.09 Ю 1
{6}
н/о н/о +0.5 -0.3 94 -2 -2 999.0 866.9
01 16.09 С 3
{6}
н/о н/о +1.9 -1.0 81 -2 -2 998.0 866.4
03 16.09 ЮВ 1
{6}
н/о н/о +0.6 -0.2 94 -1 -1 999.3 867.2
04 16.09 С 2
{4}
н/о н/о +1.0 -0.3 91 -3 -3 999.4 867.4
05 16.09 СЗ 4
{7}
н/о н/о +2.7 -1.1 76 -2 -2 999.2 867.7
06 16.09 СЗ 5
{8}
н/о н/о +2.8 -1.2 75 -2 -2 999.6 868.2 -0.2 +3.1
08 16.09 СЗ 6
{10}
н/о н/о +3.3 -1.8 69 -2 -2 1000.5 869.2
07 16.09 СЗ 6
{10}
н/о н/о +3.1 -1.6 71 -2 -2 999.8 868.5
09 16.09 СЗ 4
{11}
н/о н/о +3.1 -1.4 72 -1 -1 1001.3 869.8
10 16.09 СЗ 9
{16}
н/о н/о +3.5 -1.9 68 -3 -3 1001.3 870.0
11 16.09 СЗ 7
{16}
н/о н/о +3.1 -1.5 72 -3 -3 1002.1 870.5
12 16.09 З 3
{16}
н/о н/о +3.7 -2.3 65 0 0 1002.8 871.3
14 16.09 СЗ 8
{16}
н/о н/о +3.4 -1.5 70 -3 -3 1003.4 871.8
13 16.09 СЗ 6
{13}
н/о н/о +3.1 -0.5 77 -2 -2 1003.4 871.6
15 16.09 СЗ 10
{16}
н/о н/о +3.3 -1.7 70 -4 -4 1003.6 871.9
16 16.09 СЗ 11
{15}
н/о н/о +2.9 -2.2 69 -4 -4 1003.8 871.9
17 16.09 СЗ 8
{16}
н/о н/о +3.1 -2.7 66 -3 -3 1004.1 872.2
18 16.09 ЮЗ 3
{16}
н/о н/о +1.9 -2.2 74 -2 -2 1005.0 872.5 +1.7 +4.0
20 16.09 СВ 4
{7}
н/о н/о +1.2 -3.4 71 -4 -4 1005.3 872.6
19 16.09 СВ 1
{10}
н/о н/о +2.0 -3.2 68 +1 +1 1005.2 872.6
21 16.09 СЗ 2
{5}
н/о н/о +1.1 -3.3 72 -2 -2 1005.3 872.6
22 16.09 С 2
{5}
н/о н/о -0.4 -3.9 77 -4 -4 1005.8 872.6
23 16.09 СЗ 2
{5}
н/о н/о -0.9 -4.1 79 -5 -5 1005.5 872.3
00 17.09 С 3
{5}
н/о н/о -0.7 -5.4 70 -5 -5 1004.8 871.7
02 17.09
{6}
н/о н/о -0.7 -5.6 69 1004.6 871.5
01 17.09 С 1
{6}
н/о н/о +0.4 -5.9 63 -1 -1 1004.1 871.3
03 17.09 СЗ 2
{4}
н/о н/о -1.6 -5.7 74 -5 -5 1004.4 871.1
04 17.09 СЗ 2
{3}
н/о н/о -1.4 -6.1 70 -5 -5 1003.9 870.7
05 17.09 СЗ 2
{3}
н/о н/о -1.0 -5.9 69 -4 -4 1003.4 870.4
06 17.09 В 1
{3}
н/о н/о -1.4 -5.2 75 -3 -3 1003.2 870.1 -2.1 +2.5
08 17.09 СЗ 1
{4}
н/о н/о +0.6 -3.0 77 -1 -1 1002.0 869.5
07 17.09 С 1
{3}
н/о н/о -0.2 -3.9 76 -2 -2 1002.5 869.8
09 17.09 ЮЗ 1
{4}
н/о н/о +0.8 -2.6 78 -1 -1 1001.6 869.3
10 17.09 С 2
{3}
н/о н/о +1.7 -2.6 73 -1 -1 1000.8 868.8
11 17.09 СЗ 1
{3}
н/о н/о +2.9 -2.2 69 +2 +2 1000.0 868.6
12 17.09 З 2
{3}
н/о н/о +2.5 -2.3 71 -0 -0 1000.0 868.3
14 17.09 СЗ 3
{5}
н/о н/о +2.6 -2.7 68 -1 -1 999.7 868.1
13 17.09 Ю 2
{3}
н/о н/о +2.1 -2.1 74 -1 -1 999.9 868.1
15 17.09 СЗ 3
{7}
н/о н/о +2.7 -2.6 68 -1 -1 999.5 868.1
16 17.09 СЗ 2
{10}
н/о н/о +2.6 -1.5 74 -0 -0 999.2 867.8
17 17.09 ЮВ 1
{10}
н/о н/о +2.1 -0.6 82 +1 +1 999.6 867.8
18 17.09 З 3
{12}
н/о н/о +1.9 -0.6 83 -2 -2 999.7 867.9 -1.6 +3.2
20 17.09 СЗ 8
{19}
н/о н/о +2.4 -2.1 72 -4 -4 999.0 867.5
19 17.09 С 7
{13}
н/о н/о +2.0 -2.0 75 -4 -4 999.3 867.6
22 17.09 СЗ 8
{20}
н/о н/о +2.2 -1.4 77 -4 -4 999.5 867.8
23 17.09 СЗ 9
{18}
н/о н/о +2.0 -1.3 79 -5 -5 999.6 867.8
00 18.09 СЗ 5
{18}
н/о н/о +2.0 -1.1 80 -3 -3 999.9 868.1
02 18.09 С 7
{14}
н/о н/о +2.4 -1.3 77 -4 -4 1000.4 868.7
01 18.09 С 6
{17}
н/о н/о +2.4 -1.5 75 -3 -3 1000.2 868.6
03 18.09 СЗ 7
{14}
н/о н/о +2.3 -1.1 78 -4 -4 1000.5 868.7
04 18.09 СЗ 7
{19}
н/о н/о +2.0 -1.4 78 -4 -4 1000.9 868.9
05 18.09 СЗ 6
{19}
н/о н/о +1.9 -1.4 79 -4 -4 1001.1 869.1
06 18.09 З 5
{14}
н/о н/о +1.7 -1.0 82 -4 -4 1001.6 869.4 +1.3 +2.7
08 18.09 СЗ 4
{13}
н/о н/о +3.0 -1.8 71 -1 -1 1001.3 869.7
07 18.09 Ю 3
{11}
н/о н/о +1.3 +0.4 94 -3 -3 1001.8 869.5
09 18.09 С 3
{13}
н/о н/о +3.6 -0.9 72 0 0 1001.4 870.1
10 18.09 С 3
{10}
н/о н/о +3.8 -1.2 70 0 0 1001.8 870.6
11 18.09
{10}
н/о н/о +4.3 -0.5 71 1002.1 871.1
12 18.09 СЗ 2
{9}
н/о н/о +4.1 -1.6 66 +2 +2 1002.8 871.6
14 18.09 СЗ 4
{7}
н/о н/о +3.7 -1.4 69 -1 -1 1003.0 871.5
13 18.09 СЗ 5
{9}
н/о н/о +4.4 -0.3 71 -0 -0 1002.3 871.3
16 18.09 З 2
{6}
н/о н/о +2.9 -1.1 75 0 0 1003.6 871.8
17 18.09 С 1
{3}
н/о н/о +2.0 -1.9 75 +1 +1 1004.4 872.0
18 18.09
{3}
н/о н/о +1.9 -2.0 75 1004.9 872.4 +1.1 +4.9
20 18.09 СЗ 2
{3}
н/о н/о +0.7 -2.3 80 -3 -3 1005.1 872.3
19 18.09 С 2
{3}
н/о н/о +1.5 -2.5 75 -2 -2 1004.9 872.3
21 18.09 С 2
{4}
н/о н/о +1.0 -2.5 77 -2 -2 1004.7 872.0
22 18.09 СЗ 1
{4}
н/о н/о +1.0 -1.7 82 -1 -1 1004.7 872.0
23 18.09 С 1
{2}
н/о н/о +1.4 -1.4 82 -0 -0 1004.5 871.9
00 19.09 штиль 0
{2}
н/о н/о +1.7 -0.9 83 +1 +1 1004.0 871.6
02 19.09 СЗ 1
{2}
н/о н/о +1.6 -0.4 87 -0 -0 1003.4 871.0
01 19.09 СВ 1
{2}
н/о н/о +1.7 -0.5 85 0 0 1003.6 871.2
03 19.09 С 1
{2}
н/о н/о +1.6 -0.4 87 -0 -0 1003.3 871.0
04 19.09 В 1
{2}
н/о н/о +2.1 -0.3 84 0 0 1002.7 870.5
05 19.09 ЮЗ 1
{4}
н/о н/о +1.8 -0.1 87 0 0 1002.7 870.5
06 19.09 ЮВ 2
{4}
н/о н/о +0.6 0.0 96 -3 -3 1002.7 870.2 +0.6 +2.1
08 19.09 ЮВ 1
{3}
н/о н/о +0.4 0.0 97 -2 -2 1002.2 869.7
07 19.09 В 2
{2}
н/о н/о +0.3 -0.1 97 -4 -4 1002.6 870.0
09 19.09 штиль 0
{3}
н/о н/о +0.4 -0.1 96 -1 -1 1002.0 869.5
10 19.09 ЮВ 3
{4}
н/о н/о +0.1 -0.2 98 -5 -5 1001.8 869.3
11 19.09 СЗ 2
{4}
н/о н/о +0.3 0.0 98 -4 -4 1001.7 869.2
12 19.09 СЗ 1
{3}
н/о н/о +0.4 +0.1 98 -2 -2 1001.4 869.0
14 19.09 СЗ 1
{3}
н/о н/о +1.3 +0.6 95 -1 -1 1000.6 868.5
13 19.09 С 2
{3}
н/о н/о +1.0 +0.6 97 -3 -3 1000.7 868.5
15 19.09 СЗ 2
{3}
н/о н/о +1.1 +0.6 96 -3 -3 1000.7 868.5
16 19.09 СЗ 3
{5}
н/о н/о +1.7 +1.0 95 -3 -3 999.9 868.0
17 19.09 СЗ 9
{14}
н/о н/о +5.1 +1.8 79 -1 -1 997.7 867.6
18 19.09 СЗ 8
{16}
н/о н/о +5.7 +1.1 72 0 0 997.4 867.6 0.0 +6.2
20 19.09 С 3
{18}
н/о н/о +2.5 +0.2 85 -2 -2 999.1 867.6
19 19.09 С 11
{18}
н/о н/о +5.8 +0.9 71 -0 -0 997.3 867.6
21 19.09 С 2
{14}
н/о н/о +1.2 +1.0 99 -2 -2 999.8 867.8
22 19.09 С 2
{8}
н/о н/о +2.1 +1.1 93 -1 -1 999.0 867.3
23 19.09 СЗ 2
{3}
н/о н/о +2.3 +0.9 90 -1 -1 998.6 867.1
00 20.09 С 1
{3}
н/о н/о +3.2 +1.3 87 +2 +2 997.6 866.6
02 20.09 Ю 1
{3}
н/о н/о +3.3 +2.2 92 +2 +2 994.5 864.0
01 20.09 ЮВ 1
{3}
н/о н/о +2.9 +1.4 90 +1 +1 996.4 865.4
03 20.09 Ю 2
{6}
н/о н/о +2.3 +2.0 98 -1 -1 993.5 862.6
04 20.09 Ю 2
{6}
н/о н/о +1.6 +1.4 99 -2 -2 991.8 861.0
05 20.09 ЮВ 3
{6}
н/о н/о +1.6 +1.4 99 -3 -3 989.9 859.3
06 20.09 В 1
{6}
н/о н/о +0.7 +0.5 99 -1 -1 988.6 857.9 +0.3 +6.5
08 20.09
{3}
н/о н/о +1.7 +1.4 98 986.4 856.3
07 20.09 СЗ 2
{5}
н/о н/о +1.2 +1.0 99 -2 -2 987.4 857.0
09 20.09 С 2
{4}
н/о н/о +2.7 +1.9 94 -1 -1 985.6 856.0
10 20.09 ЮВ 3
{5}
н/о н/о +5.3 +2.8 84 +2 +2 983.9 855.6
11 20.09 Ю 2
{5}
н/о н/о +6.2 +2.8 79 +4 +4 982.8 855.1
12 20.09 Ю 3
{11}
н/о н/о +7.2 +0.3 62 +5 +5 982.1 854.9
14 20.09 З 3
{14}
н/о н/о +5.4 -0.5 66 +2 +2 983.0 854.9
13 20.09 ЮЗ 3
{11}
н/о н/о +5.4 +1.2 74 +2 +2 983.0 854.9
15 20.09 Ю 8
{18}
н/о н/о +4.9 -1.7 62 -1 -1 984.1 855.6
16 20.09 Ю 7
{18}
н/о н/о +4.3 -1.6 65 -1 -1 984.2 855.5
17 20.09 Ю 7
{17}
н/о н/о +4.4 -2.1 63 -1 -1 983.9 855.2
18 20.09 Ю 7
{17}
н/о н/о +4.3 -2.4 62 -1 -1 983.3 854.8 +0.6 +7.5
20 20.09 Ю 5
{19}
н/о н/о +3.9 -1.4 68 -1 -1 983.6 854.8
19 20.09 Ю 7
{16}
н/о н/о +4.4 -2.1 63 -1 -1 983.3 854.7

 

Местоположение метеостанции Tarfala (Швеция): широта 67.92 долгота 18.60 высота над уровнем моря 1146 м.

В архиве по умолчанию представлена погода в Tarfala за последнюю неделю. Архивные данные за месяц целиком и за предыдущие месяцы, начиная с января 2011 года, Вы можете получить, выбрав интересующий диапазон дат из раскрывающегося списка и нажав кнопку "Ввод!".


*Определитесь, кто Вы:
робот инопланетянин человек

Внимание! Время в таблицах - всемирное. Для получения местного времени необходимо прибавить поправку, которая в Tarfala равна 1 ч.

Смотрите также архив погоды в соседних городах и на ближайших метеорологических станциях:

Погода в Nikkaluokta (Швеция) (20 км)
Погода в Losistua (Норвегия) (45 км)
Погода в Stora Sjofallet (Швеция) (48 км)
Погода в Ritsem (Швеция) (52 км)
Погода в Rensjon (Швеция) (54 км)
Погода в Katterjakk A (Швеция) (58 км)
Погода в Katterjakk (Швеция) (58 км)
Погода в Straumsnes (Норвегия) (69 км)
Погода в Kiruna (Швеция) (73 км)
Погода в Narvik Lufthavn (Норвегия) (76 км)

Пояснения к столбцам:

Ветер - указаны скорость ветра в м/с - средняя за 10 мин, порывы в срок и между сроками (в фигурных скобках) и направление, откуда дует ветер: С - северный, СВ - северо-восточный, В - восточный, ЮВ - юго-восточный, Ю - южный, ЮЗ - юго-западный, З - западный, СЗ - северо-западный.
Видимость - горизонтальная дальность видимости в метрах или километрах. При видимости от 1 до 10 км при отсутствии осадков обычно наблюдается дымка, при ухудшении видимости до 1 км и менее - туман. В сухую погоду видимость может ухудшаться дымом, пылью или мглою.
Явления - указаны атмосферные явления, наблюдавшиеся в срок или в последний час перед сроком; фигурными скобками обозначены явления, наблюдавшиеся между сроками (за 1-3 часа до срока); квадратными скобками обозначены град или гололедные отложения с указанием их диаметра в мм.
Облачность - указаны через наклонную черту общая и нижняя облачность в баллах и высота нижней границы облаков в метрах; квадратными скобками обозначены формы облаков: Ci - перистые, Cs - перисто-слоистые, Cc - перисто-кучевые, Ac - высококучевые, As - высокослоистые, Sc - слоисто-кучевые, Ns - слоисто-дождевые, Cu - кучевые, Cb - кучево-дождевые. Подробнее классификацию облаков см. в Атласе облаков (PDF).
T - Температура воздуха - температура, измеренная на высоте 2 м над землей.
Td - Температура точки росы - температура, при понижении до которой содержащийся в воздухе водяной пар достигнет насыщения.
f - Относительная влажность воздуха - влажноcть воздуха, измеренная на высоте 2 м над землей.
Te - Эффективная температура - температура, которую ощущает одетый по сезону человек в тени. Характеристика душности погоды. При расчете учитывается влияние влажности воздуха и скорости ветра на теплоощущения человека.
Tes - Эффективная температура на солнце - температура, которую ощущает человек, с поправкой на солнечный нагрев. Характеристика знойности погоды. Зависит от высоты солнца над горизонтом, облачности и скорости ветра. Ночью, в пасмурную погоду, а также при ветре 12 м/с и более поправка равна нулю.
P - Атмосферное давление - приведенное к уровню моря атмосферное давление.
Po - Атмосферное давление - измеренное на уровне метеостанции атмосферное давление.
Tmin - Минимальная температура - минимум температуры воздуха на высоте 2 м над землей.
Tmax - Максимальная температура - максимум температуры воздуха на высоте 2 м над землей.
R - Количество осадков - Количество выпавших осадков за период времени, мм. При наведении курсора мыши на число - период времени, за который выпало указанное количество осадков.
R24 - Количество осадков - Количество выпавших осадков за 24 часа, мм.
S - Снежный покров - Высота снежного покрова, см. При наведении курсора мыши на число - состояние снежного покрова и степень покрытия местности в баллах.